Total_Precipitation_Accumulation
1.27 1.31 1.19 1.19 1.22 1.21 1.17 1.20 1.27 1.33 1.43 1.45 1.48 1.50 1.51 1.56 1.60 1.69 1.82 1.97 1.98 1.99 1.87 1.90 2.03 2.11 2.30 2.34 2.30 2.26 2.25 2.17 2.06 1.96 1.70 1.49 1.46 1.56 1.62 1.50 1.53 1.58 1.49
1.35 1.27 1.21 1.28 1.32 1.36 1.33 1.30 1.31 1.32 1.30 1.35 1.45 1.40 1.38 1.41 1.47 1.57 1.67 1.71 1.77 1.73 1.64 1.67 1.79 1.87 2.03 2.13 2.23 2.14 2.15 2.12 2.11 2.07 1.84 1.63 1.54 1.56 1.64 1.59 1.46 1.44 1.46
1.36 1.38 1.26 1.17 1.23 1.28 1.31 1.28 1.25 1.25 1.26 1.34 1.44 1.52 1.42 1.32 1.38 1.44 1.48 1.48 1.48 1.41 1.40 1.47 1.54 1.62 1.75 1.86 1.96 2.05 2.07 2.01 2.10 2.08 1.88 1.69 1.53 1.48 1.54 1.50 1.44 1.49 1.41
1.38 1.36 1.34 1.29 1.31 1.25 1.19 1.17 1.17 1.14 1.10 1.14 1.27 1.37 1.40 1.34 1.27 1.25 1.24 1.38 1.36 1.26 1.16 1.16 1.19 1.24 1.37 1.50 1.61 1.78 1.94 2.06 2.13 2.15 1.99 1.74 1.55 1.48 1.55 1.61 1.59 1.50 1.50
1.41 1.41 1.34 1.30 1.25 1.21 1.15 1.07 1.07 0.99 0.98 1.03 1.19 1.34 1.39 1.36 1.36 1.34 1.23 1.25 1.30 1.30 1.21 1.08 1.00 1.01 1.12 1.20 1.28 1.55 1.75 1.91 2.04 2.10 2.01 1.83 1.65 1.56 1.53 1.53 1.61 1.69 1.69
1.19 1.24 1.31 1.30 1.15 1.07 1.02 1.01 0.98 0.92 0.91 0.92 1.01 1.15 1.29 1.25 1.42 1.47 1.36 1.22 1.21 1.21 1.20 1.17 1.14 1.11 0.98 0.93 0.99 1.15 1.38 1.57 1.76 1.88 1.91 1.75 1.58 1.54 1.59 1.60 1.60 1.66 1.71
1.05 1.09 1.15 1.16 1.02 0.96 0.87 0.83 0.84 0.84 0.87 0.88 0.95 1.09 1.24 1.42 1.48 1.30 1.36 1.31 1.22 1.21 1.17 1.16 1.19 1.16 1.21 1.07 1.01 0.99 1.00 1.18 1.42 1.62 1.64 1.57 1.64 1.58 1.54 1.50 1.49 1.49 1.51
0.89 0.93 0.93 0.94 0.90 0.85 0.75 0.73 0.76 0.81 0.87 0.89 0.95 1.03 1.11 1.35 1.45 1.26 1.44 1.44 1.38 1.33 1.27 1.27 1.32 1.34 1.28 1.39 1.34 1.20 1.09 1.06 1.18 1.12 1.19 1.47 1.60 1.62 1.63 1.64 1.68 1.59 1.52
0.67 0.75 0.80 0.82 0.80 0.76 0.72 0.80 0.85 0.84 0.86 0.88 0.87 0.89 0.91 1.02 1.18 1.12 1.26 1.35 1.45 1.43 1.30 1.28 1.30 1.29 1.52 1.59 1.43 1.35 1.24 1.16 1.33 1.36 1.37 1.42 1.50 1.49 1.47 1.54 1.60 1.56 1.50
0.50 0.57 0.65 0.72 0.75 0.80 0.92 1.02 1.06 1.01 0.91 0.84 0.82 0.80 0.81 0.83 1.03 0.93 1.04 1.13 1.28 1.42 1.38 1.30 1.46 1.40 1.42 1.39 1.29 1.43 1.36 1.22 1.14 1.11 1.12 1.17 1.20 1.25 1.31 1.31 1.45 1.49 1.42
0.34 0.41 0.53 0.69 0.78 0.89 1.05 1.08 1.06 1.01 0.90 0.79 0.75 0.75 0.74 0.82 1.02 1.00 1.08 1.10 1.19 1.28 1.31 1.32 1.29 1.42 1.25 1.21 1.21 1.28 1.42 1.37 1.30 1.30 1.23 1.17 1.13 1.12 1.10 1.14 1.26 1.36 1.39
0.39 0.40 0.46 0.58 0.73 0.91 1.05 1.05 1.05 1.04 0.96 0.84 0.81 0.79 0.82 0.93 1.01 1.05 1.06 1.10 1.17 1.20 1.16 1.05 1.05 1.18 1.05 1.02 1.00 1.10 1.29 1.31 1.24 1.28 1.23 1.15 1.09 1.06 1.04 1.06 1.15 1.22 1.23
0.39 0.35 0.37 0.46 0.60 0.78 0.88 0.91 0.95 0.99 0.95 0.90 0.85 0.81 0.84 0.91 1.03 1.20 1.08 0.98 0.96 0.99 0.99 1.01 0.94 0.92 0.91 0.84 0.87 1.00 1.06 1.18 1.26 1.26 1.13 1.03 1.03 1.06 1.08 1.08 1.08 1.13 1.15
0.33 0.35 0.35 0.35 0.38 0.47 0.56 0.63 0.72 0.78 0.79 0.80 0.81 0.81 0.84 0.85 0.85 0.96 1.01 0.93 0.86 0.82 0.80 0.74 0.73 0.76 0.80 0.78 0.78 0.80 0.85 1.09 1.26 1.22 1.10 1.02 1.03 1.07 1.15 1.18 1.16 1.11 1.13
0.34 0.36 0.37 0.37 0.39 0.41 0.44 0.47 0.53 0.57 0.68 0.76 0.77 0.79 0.78 0.77 0.79 0.90 0.90 0.88 0.91 0.93 0.94 0.84 0.78 0.74 0.75 0.76 0.76 0.80 0.92 1.05 1.19 1.12 1.12 1.06 1.04 1.09 1.14 1.19 1.28 1.26 1.18
0.33 0.33 0.31 0.32 0.35 0.35 0.39 0.43 0.48 0.49 0.57 0.61 0.62 0.63 0.60 0.66 0.75 0.75 0.75 0.77 0.83 0.93 0.97 0.92 0.93 0.91 0.89 0.88 0.85 0.81 0.82 0.92 1.02 1.08 1.09 1.11 1.08 1.06 1.05 1.09 1.18 1.23 1.21
0.32 0.30 0.29 0.28 0.32 0.36 0.37 0.41 0.46 0.45 0.43 0.41 0.46 0.49 0.49 0.52 0.54 0.57 0.64 0.72 0.76 0.84 0.84 0.84 0.87 0.86 0.84 0.85 0.85 0.83 0.82 0.82 0.90 1.00 1.12 1.21 1.22 1.20 1.18 1.13 1.12 1.14 1.11
0.34 0.36 0.36 0.36 0.38 0.36 0.39 0.42 0.44 0.46 0.41 0.34 0.35 0.39 0.42 0.46 0.47 0.47 0.50 0.56 0.57 0.62 0.70 0.77 0.78 0.78 0.77 0.78 0.78 0.77 0.77 0.78 0.82 0.87 0.98 1.11 1.25 1.34 1.34 1.31 1.26 1.25 1.22
0.33 0.34 0.37 0.41 0.41 0.40 0.42 0.46 0.45 0.42 0.39 0.35 0.33 0.35 0.41 0.46 0.50 0.53 0.51 0.45 0.44 0.46 0.52 0.60 0.64 0.65 0.67 0.69 0.72 0.76 0.80 0.82 0.82 0.83 0.86 0.90 1.01 1.18 1.28 1.33 1.39 1.48 1.43
0.33 0.37 0.38 0.39 0.42 0.44 0.42 0.41 0.40 0.40 0.39 0.37 0.35 0.36 0.41 0.44 0.43 0.42 0.43 0.45 0.48 0.50 0.50 0.53 0.57 0.60 0.64 0.67 0.70 0.73 0.77 0.80 0.84 0.86 0.86 0.90 0.96 1.03 1.13 1.20 1.25 1.33 1.38
0.36 0.37 0.39 0.37 0.36 0.39 0.40 0.38 0.38 0.37 0.35 0.33 0.32 0.35 0.41 0.43 0.44 0.42 0.42 0.43 0.46 0.50 0.50 0.50 0.51 0.55 0.59 0.65 0.75 0.80 0.79 0.80 0.85 0.92 1.00 1.02 1.03 1.06 1.07 1.13 1.17 1.23 1.29
0.41 0.38 0.34 0.33 0.35 0.36 0.38 0.38 0.39 0.41 0.41 0.37 0.35 0.35 0.40 0.41 0.44 0.43 0.43 0.41 0.42 0.45 0.48 0.50 0.49 0.48 0.51 0.58 0.70 0.84 0.91 0.88 0.86 0.93 1.03 1.09 1.12 1.13 1.14 1.18 1.22 1.28 1.30
0.37 0.38 0.38 0.37 0.36 0.38 0.40 0.39 0.39 0.40 0.42 0.42 0.43 0.41 0.39 0.38 0.38 0.38 0.40 0.42 0.42 0.43 0.46 0.50 0.51 0.51 0.51 0.55 0.64 0.75 0.84 0.92 0.98 1.04 1.11 1.14 1.16 1.17 1.21 1.23 1.23 1.30 1.33
0.33 0.31 0.34 0.39 0.41 0.44 0.44 0.43 0.43 0.42 0.44 0.45 0.44 0.44 0.42 0.41 0.39 0.35 0.36 0.39 0.42 0.42 0.45 0.50 0.54 0.54 0.57 0.58 0.59 0.64 0.70 0.78 0.84 0.90 1.01 1.13 1.17 1.18 1.22 1.25 1.25 1.27 1.34
0.35 0.32 0.34 0.38 0.39 0.40 0.43 0.47 0.54 0.53 0.50 0.47 0.45 0.44 0.42 0.42 0.43 0.40 0.38 0.40 0.43 0.46 0.46 0.46 0.48 0.53 0.58 0.61 0.62 0.67 0.84 0.90 0.87 0.87 0.92 1.05 1.12 1.16 1.24 1.32 1.39 1.42 1.42
0.38 0.37 0.35 0.37 0.39 0.39 0.42 0.47 0.53 0.57 0.55 0.52 0.51 0.51 0.51 0.48 0.48 0.47 0.46 0.47 0.49 0.50 0.52 0.55 0.55 0.56 0.60 0.64 0.66 0.75 0.87 0.86 0.87 0.94 0.96 0.98 1.06 1.11 1.20 1.33 1.40 1.48 1.53